Change the Weather History Date:

Thursday, January 9, 2014

  Actual Average Record
Temperature  
Mean Temperature 52 °F -  
Max Temperature 64 °F 52 °F 72 °F (2004)
Min Temperature 39 °F 37 °F 24 °F (2007)
Degree Days  
Heating Degree Days 14    
Growing Degree Days 2 (Base 50)    
Moisture  
Dew Point 38 °F    
Average Humidity 67    
Maximum Humidity 77    
Minimum Humidity 50    
Precipitation  
Precipitation 0.00 in - - ()
Sea Level Pressure  
Sea Level Pressure 30.21 in    
Wind  
Wind Speed 7 mph (WNW)    
Max Wind Speed 17 mph    
Max Gust Speed -    
Visibility 7 miles    
Events      
Averages and records for this station are not official NWS values.
T = Trace of Precipitation, MM = Missing Value Source: NWS Daily Summary

Daily Weather History Graph

Daily Weather History Graph

Search for Another Location

Airport or City:

Trip Planner

Search our weather history database for the weather conditions in past years. The results will help you decide how hot, cold, wet, or windy it might be!

Date:

Astronomy

Jan. 09, 2014 Rise Set
Actual Time 7:11 AM PST 5:02 PM PST
Civil Twilight 6:43 AM PST 5:31 PM PST
Nautical Twilight 6:11 AM PST 6:02 PM PST
Astronomical Twilight 5:40 AM PST 6:33 PM PST
Moon 12:29 PM PST (1/9) 1:28 AM PST (1/9)
Length of Visible Light 10h 47m
Length of Day
9h 51m
Waxing Gibbous, 67% of the Moon is Illuminated
Jan 9
Waxing Gibbous
Jan 15
Full
Jan 23
Last Quarter
Jan 30
New
Feb 6
First Quarter

Hourly Weather History & Observations

Time (PST) Temp. Windchill Dew Point Humidity Pressure Visibility Wind Dir Wind Speed Gust Speed Precip Events Conditions
12:56 AM 41.0 °F 35.2 °F 33.1 °F 73% 30.21 in 8.0 mi WNW 9.2 mph - N/A   Clear
1:56 AM 39.9 °F 34.5 °F 33.1 °F 77% 30.21 in 6.0 mi West 8.1 mph - N/A   Haze
2:56 AM 39.9 °F 35.1 °F 33.1 °F 77% 30.21 in 6.0 mi WSW 6.9 mph - N/A   Haze
3:56 AM 39.0 °F 32.8 °F 32.0 °F 76% 30.20 in 6.0 mi WSW 9.2 mph - N/A   Haze
4:56 AM 39.9 °F 36.7 °F 32.0 °F 73% 30.21 in 6.0 mi WSW 4.6 mph - N/A   Haze
5:56 AM 39.9 °F - 33.1 °F 77% 30.22 in 5.0 mi Calm Calm - N/A   Haze
6:56 AM 41.0 °F - 34.0 °F 76% 30.23 in 5.0 mi Calm Calm - N/A   Haze
7:56 AM 41.0 °F - 34.0 °F 76% 30.24 in 4.0 mi Calm Calm - N/A   Haze
8:56 AM 45.0 °F 42.6 °F 36.0 °F 71% 30.25 in 4.0 mi WNW 4.6 mph - N/A   Haze
9:56 AM 52.0 °F - 42.1 °F 69% 30.25 in 4.0 mi West 5.8 mph - N/A   Haze
10:56 AM 57.0 °F - 44.1 °F 62% 30.24 in 5.0 mi NW 8.1 mph - N/A   Haze
11:56 AM 59.0 °F - 44.1 °F 58% 30.20 in 6.0 mi Variable 4.6 mph - N/A   Haze
12:56 PM 62.1 °F - 45.0 °F 53% 30.18 in 7.0 mi North 13.8 mph - N/A   Mostly Cloudy
1:56 PM 64.0 °F - 46.0 °F 52% 30.16 in 10.0 mi North 17.3 mph - N/A   Scattered Clouds
3:56 PM 64.0 °F - 45.0 °F 50% 30.17 in 10.0 mi NNW 12.7 mph - N/A   Partly Cloudy
4:56 PM 61.0 °F - 44.1 °F 54% 30.18 in 10.0 mi North 9.2 mph - N/A   Scattered Clouds
5:56 PM 57.0 °F - 42.1 °F 57% 30.18 in 10.0 mi North 8.1 mph - N/A   Scattered Clouds
6:56 PM 51.1 °F - 39.9 °F 66% 30.21 in 10.0 mi NNE 6.9 mph - N/A   Scattered Clouds
7:56 PM 50.0 °F - 39.9 °F 68% 30.22 in 10.0 mi ESE 6.9 mph - N/A   Partly Cloudy
8:56 PM 51.1 °F - 39.9 °F 66% 30.23 in 10.0 mi WSW 4.6 mph - N/A   Partly Cloudy
9:56 PM 52.0 °F - 41.0 °F 66% 30.24 in 9.0 mi Calm Calm - N/A   Partly Cloudy
10:56 PM 45.0 °F - 35.1 °F 68% 30.25 in 9.0 mi Calm Calm - N/A   Partly Cloudy
11:56 PM 43.0 °F 41.3 °F 34.0 °F 71% 30.25 in 10.0 mi SW 3.5 mph - N/A   Partly Cloudy